{"data":{"norad_id":67382,"epoch":"2026-05-24T22:50:09.453120Z","epoch_age_seconds":89489,"freshness":"FRESH","line1":"1 67382U 26004V   26144.95149830  .00000608  00000+0  71780-4 0  9994","line2":"2 67382  97.8032 144.0102 0004380 174.6430 185.4835 14.88233864 19831","mean_motion":14.88233864,"eccentricity":0.000438,"inclination_deg":97.8032,"raan_deg":144.0102,"arg_perigee_deg":174.643,"mean_anomaly_deg":185.4835,"bstar":7.178e-5,"rev_number":1983,"period_min":96.758986261046,"perigee_km":600.39579382701,"apogee_km":606.51166730698,"semimajor_km":6981.590730567,"source":"CELESTRAK","updated_at":"2026-05-25T13:38:06.932117Z"}}